Hourly Data Report for July 24, 2021

RANKIN INLET A
NUNAVUT
Current Station Operator: NAVCAN

62°48'38.000" N
92°06'53.000" W
32.30 m
2303405
71083
YRT

Download Data

Hourly Data (July 2021)
Hourly Data Report for July 24, 2021
TIME
LST
Temp Definition
°C
Dew Point Definition
°C
Rel Hum Definition
%
Precip. Amount Definition
mm

Wind Dir Definition
10's deg

Wind Spd Definition
km/h
Visibility Definition
km
Stn Press Definition
kPa
Hmdx Definition


Wind Chill Definition


Weather Definition


00:00 8.8 7.0 88   11 13 8.1 97.83     Fog
01:00 8.0 6.5 90   9 12 8.1 97.78     Fog
02:00 8.1 7.1 93   6 12 6.4 97.73     Fog
03:00 8.0 7.2 95   5 10 6.4 97.68     Fog
04:00 8.8 8.1 95   5 12 8.1 97.68     Fog
05:00 9.1 8.3 95   6 9 8.1 97.65     Fog
06:00 9.1 7.9 92   0 LegendMM 8.1 97.66     Fog
07:00 11.4 10.2 92   34 28 8.1 97.66     Fog
08:00 11.8 10.1 89   34 39 16.1 97.65     LegendNANA
09:00 11.5 10.2 92   34 43 16.1 97.67     Cloudy
10:00 11.0 10.1 94   32 44 6.4 97.74     Rain, Fog
11:00 11.5 8.6 82   32 55 24.1 97.78     LegendNANA
12:00 9.6 7.7 88   31 52 24.1 97.84     Cloudy
13:00 10.3 7.0 80   31 56 24.1 97.86     LegendNANA
14:00 10.2 6.5 77   30 52 24.1 97.94     LegendNANA
15:00 9.7 5.5 75   30 53 24.1 98.00     Mostly Cloudy
16:00 8.5 4.0 73   30 54 24.1 98.05     LegendNANA
17:00 8.0 3.2 72   29 53 24.1 98.05     LegendNANA
18:00 6.8 4.1 83   30 48 24.1 98.01     Rain
19:00 5.9 5.0 94   29 45 8.1 97.98     Rain, Fog
20:00 6.1 5.0 92   30 48 8.1 97.94     Rain, Fog
21:00 6.0 4.7 91   30 50 8.1 97.89     Rain, Fog
22:00 6.1 4.8 91   31 48 6.4 97.84     Rain, Fog
23:00 5.9 5.0 94   31 52 6.4 97.79     Rain, Fog

Notes on Data Quality.

Legend

  • E = Estimated
  • M = Missing
  • NA = Not Available*
  • [empty] = Indicates an unobserved value
Date modified: